TimeMST,TemperatureF,Dew PointF,Humidity,Sea Level PressureIn,VisibilityMPH,Wind Direction,Wind SpeedMPH,Gust SpeedMPH,PrecipitationIn,Events,Conditions,WindDirDegrees,DateUTC
12:55 AM,25.0,16.0,69,30.13,10.0,SSE,9.2,-,N/A,,Clear,150,2013-01-24 07:55:00
1:55 AM,24.1,16.0,71,30.11,10.0,SE,10.4,-,N/A,,Clear,130,2013-01-24 08:55:00
2:55 AM,23.0,16.0,74,30.08,10.0,SE,8.1,-,N/A,,Clear,130,2013-01-24 09:55:00
3:55 AM,23.0,16.0,74,30.08,10.0,SE,9.2,-,N/A,,Clear,130,2013-01-24 10:55:00
5:55 AM,21.9,17.1,82,30.14,10.0,SE,4.6,-,N/A,,Clear,140,2013-01-24 12:55:00
6:55 AM,18.0,14.0,84,30.18,10.0,North,3.5,-,N/A,,Clear,10,2013-01-24 13:55:00
7:55 AM,21.0,17.1,85,30.17,10.0,Calm,Calm,-,N/A,,Clear,0,2013-01-24 14:55:00
8:55 AM,25.0,18.0,75,30.15,10.0,Calm,Calm,-,N/A,,Clear,0,2013-01-24 15:55:00
9:55 AM,30.0,19.9,66,30.14,10.0,Calm,Calm,-,N/A,,Clear,0,2013-01-24 16:55:00
10:55 AM,33.1,19.9,59,30.11,10.0,ESE,5.8,-,N/A,,Scattered Clouds,110,2013-01-24 17:55:00
11:55 AM,33.1,19.0,56,30.09,10.0,ESE,3.5,-,N/A,,Clear,120,2013-01-24 18:55:00
12:55 PM,45.0,19.0,36,30.02,10.0,Calm,Calm,-,N/A,,Clear,0,2013-01-24 19:55:00
1:55 PM,54.0,12.9,20,29.96,10.0,SE,6.9,-,N/A,,Clear,140,2013-01-24 20:55:00
2:55 PM,55.9,6.1,14,29.96,10.0,SSE,6.9,-,N/A,,Clear,150,2013-01-24 21:55:00
3:55 PM,53.1,5.0,14,29.99,10.0,SSE,3.5,-,N/A,,Clear,150,2013-01-24 22:55:00
4:55 PM,45.0,10.9,25,30.03,10.0,Calm,Calm,-,N/A,,Clear,0,2013-01-24 23:55:00
5:55 PM,35.1,15.1,44,30.09,10.0,Calm,Calm,-,N/A,,Clear,0,2013-01-25 00:55:00
6:55 PM,37.0,12.0,36,30.12,10.0,Calm,Calm,-,N/A,,Clear,0,2013-01-25 01:55:00
7:55 PM,37.0,12.9,37,30.12,10.0,WNW,3.5,-,N/A,,Clear,290,2013-01-25 02:55:00
8:55 PM,37.9,19.9,48,30.12,10.0,NW,3.5,-,N/A,,Clear,310,2013-01-25 03:55:00
9:55 PM,37.9,21.0,51,30.13,10.0,North,10.4,-,N/A,,Clear,360,2013-01-25 04:55:00
10:55 PM,35.1,17.1,48,30.14,10.0,WNW,5.8,-,N/A,,Clear,290,2013-01-25 05:55:00
11:55 PM,27.0,18.0,69,30.19,10.0,NW,3.5,-,N/A,,Clear,310,2013-01-25 06:55:00